Regional Weather Roundup
Issued by NWS

Home | Current Version | Previous Version | Graphics & Text | Print | Product List | Glossary Off
Versions: 1 2 3 4 5 6 7 8 9 10 11 12 13 14 15 16 17 18 19 20 21 22 23 24 25 26 27 28 29 30 31 32 33 34 35 36 37 38 39 40 41 42 43 44 45 46 47 48 49 50

000
ASUS43 KTOP 220108
RWRKS

WEATHER ROUNDUP FOR KANSAS
NATIONAL WEATHER SERVICE GOODLAND KS
700 PM CST FRI NOV 21 2014

NOTE:  "FAIR" INDICATES FEW OR NO CLOUDS BELOW 12,000 FEET WITH NO
SIGNIFICANT WEATHER AND/OR OBSTRUCTIONS TO VISIBILITY.

KSZ001>006-013>018-027>032-041>047-220200-
NORTHWEST KANSAS

CITY           SKY/WX    TMP DP  RH WIND       PRES   REMARKS
GOODLAND       PTCLDY    39  28  64 S7        29.93R
HAYS           CLOUDY    41  28  60 S9        29.99S
HILL CITY      PTCLDY    36  33  89 E5        29.98R
RUSSELL        CLOUDY    38  36  92 S8        29.99R
$$

KSZ061>065-074>080-084>089-220200-
SOUTHWEST KANSAS

CITY           SKY/WX    TMP DP  RH WIND       PRES   REMARKS
DODGE CITY     CLOUDY    37  34  89 SE7       29.99S FOG
ELKHART          N/A    N/A N/A N/A MISG        N/A
GARDEN CITY    MOCLDY    40  35  83 SE10      29.95S WCI  33
GREAT BEND     CLOUDY    39  34  81 S6        30.02R
LIBERAL        MOCLDY    45  30  57 SE9       29.99R
PRATT          CLOUDY    39  37  93 S6        30.02S FOG
$$

KSZ066>073-081>083-090>101-220200-
SOUTHEAST KANSAS

CITY           SKY/WX    TMP DP  RH WIND       PRES   REMARKS
CHANUTE        CLOUDY    52  50  93 SE3       30.07R
COFFEYVILLE    CLOUDY    55  50  83 S12       30.08R
HUTCHINSON       N/A    N/A N/A N/A MISG      30.02F
MEDICINE LODGE   N/A     41  39  93 S5        30.03R
NEWTON         CLOUDY    43  37  81 SE5       30.04R VSB 1/4
PARSONS        LGT RAIN  55  51  86 SE6       30.08R
WICHITA INTL   FOG       45  45 100 CALM      30.03R VSB 1/4
WICHITA JABRA  CLOUDY    45  45 100 S3        30.03R FOG
WICHITA MCCONL CLOUDY    45  45 100 S3        30.03R FOG
WINFIELD       FOG       47  47 100 CALM      30.06R VSB 3/4
$$

KSZ007>012-019>026-033>040-048>060-102>105-220200-
NORTHEAST KANSAS

CITY           SKY/WX    TMP DP  RH WIND       PRES   REMARKS
CONCORDIA      FOG       35  35 100 E6        30.02S VSB 3/4
EMPORIA        FOG       40  40 100 SE3       30.04F VSB 1/4
LAWRENCE       CLOUDY    42  38  85 E6        30.07F
MANHATTAN      FOG       36  36 100 NE3       30.06F VSB 1/2
MARYSVILLE     FOG       34  34 100 S6        30.04F VSB 1/2
OLATHE IND     CLOUDY    44  40  85 SE12      30.07F
OLATHE EXE     CLOUDY    45  41  86 SE8       30.07S
SALINA         FOG       39  37  92 E6        30.04S VSB 1/4
TOPEKA BILLARD CLOUDY    40  38  93 E3        30.07S FOG
TOPEKA FORBES  CLOUDY    41  39  93 SE5       30.05F FOG
$$



USA.gov is the U.S. government's official web portal to all federal, state and local government web resources and services.